Location: Lake Almanor
(40.2485°N, 121.1442°W)
Time: 16:13:40
(UTC-08:00)

STARLINK-1078 - Pass Details

Date: 01 February 2020
Orbit: 348 x 351 km, 53.0° (Epoch: 17 February)

Event Time Altitude Azimuth Distance (km) Brightness Sun altitude
Rises 18:30:34 0° 308° (NW) 2,179 7.3 -13.2°
Reaches altitude 10° 18:32:35 10° 307° (NW) 1,333 6.2 -13.6°
Maximum altitude 18:35:33 77° 221° (SW) 370 2.8 -14.1°
Enters shadow 18:37:36 18° 137° (SE) 962 4.6 -14.5°
